Location: *
(37.4917°N, 71.5558°E)
Time: 03:15:02
(UTC+00:00)

ATLAS 3B R/B - Pass Details

Date: 09 April 2020
Orbit: 1024 x 1171 km, 63.8° (Epoch: 29 May)

Event Time Altitude Azimuth Distance (km) Brightness Sun altitude
Exits shadow 22:35:09 53° 220° (SW) 1,246 2.6 -24.8°
Maximum altitude 22:36:53 84° 302° (WNW) 1,035 2.5 -24.5°
Drops below altitude 10° 22:43:32 10° 31° (NNE) 2,821 5.8 -23.4°
Sets 22:46:09 0° 32° (NNE) 3,782 6.6 -23.0°
